Regional Weather Roundup
Issued by NWS New Orleans/Baton Rouge, LA

Home | Current Version | Previous Version | Graphics & Text | Print | Product List | Glossary On
Versions: 1 2 3 4 5 6 7 8 9 10 11 12 13 14 15 16 17 18 19 20 21 22 23 24 25 26 27 28 29 30 31 32 33 34 35 36 37 38 39 40 41 42 43 44 45 46 47 48 49 50
843
ASUS44 KLIX 210610
RWRLIX
NEW ORLEANS REGIONAL WEATHER ROUNDUP
NATIONAL WEATHER SERVICE NEW ORLEANS LA
1200 AM CST SUN DEC 21 2014

NOTE: "FAIR" INDICATES FEW OR NO CLOUDS BELOW 12,000 FEET WITH NO
      SIGNIFICANT WEATHER AND/OR OBSTRUCTIONS TO VISIBILITY.
      SKY/WX - SKY CONDITION AND SIGNIFICANT WEATHER.
      TMP - AIR TEMPERATURE.     DP    - DEWPOINT TEMPERATURE.
      RH  - RELATIVE HUMIDITY.   PRES  - PRESSURE.
      HI  - HEAT INDEX.          WCI   - WIND CHILL INDEX.

*  THESE STATIONS ARE NOT NWS OR FAA STATIONS AND ARE NOT UNDER
   NWS QUALITY CONTROL.

LAZ038-040-048-061>063-065>067-069-210700-
SOUTHEAST LOUISIANA

CITY           SKY/WX    TMP DP  RH WIND       PRES   REMARKS
N.O. AUDUBON     N/A     52  50  91 MISG        N/A
6HR MIN TEMP:  52; 6HR MAX TEMP:  54;

N.O. INTL ARPT CLOUDY    53  47  79 NE8       30.16S
6HR MIN TEMP:  52; 6HR MAX TEMP:  53;

N.O. LAKEFRONT CLOUDY    55  48  77 NE13      30.17S
6HR MIN TEMP:  54; 6HR MAX TEMP:  55;

N.O. DOWNTOWN* CLOUDY    54  45  71 N5        30.17S
6HR MIN TEMP:  52; 6HR MAX TEMP:  54;

SLIDELL        CLOUDY    52  46  80 VRB6      30.15F
6HR MIN TEMP:  52; 6HR MAX TEMP:  53;

BATON ROUGE    MOCLDY    44  42  93 CALM      30.17S
6HR MIN TEMP:  42; 6HR MAX TEMP:  48;

BOOTHVILLE     CLOUDY    54  53  97 N8        30.13F
6HR MIN TEMP:  54; 6HR MAX TEMP:  55;

BELLE CHASSE   CLOUDY    53  48  83 N6        30.15F
6HR MIN TEMP:  52; 6HR MAX TEMP:  53;

BOGALUSA*        N/A     52  46  79 CALM      30.18S
6HR MIN TEMP:  51; 6HR MAX TEMP:  53;

GALLIANO*      CLOUDY    54  50  86 MISG      30.15S
6HR MIN TEMP:  54; 6HR MAX TEMP:  55;

NEW ROADS*       N/A     42  42  98 N3        30.18S
6HR MIN TEMP:  42; 6HR MAX TEMP:  49;

GONZALES*      CLOUDY    50  50 100 CALM      30.16F
6HR MIN TEMP:  50; 6HR MAX TEMP:  50;

HAMMOND*       NOT AVBL
HOUMA*         CLOUDY    51  49  92 NE7       30.15F
6HR MIN TEMP:  50; 6HR MAX TEMP:  51;

PORT FOURCHON* CLOUDY    54  50  87 NE14      30.16F

$$

MSZ070-080>082-210700-
SOUTHERN MISSISSIPPI

CITY           SKY/WX    TMP DP  RH WIND       PRES   REMARKS
MCCOMB         PTCLDY    44  42  93 N5        30.17S
6HR MIN TEMP:  42; 6HR MAX TEMP:  50;

GULFPORT       CLOUDY    51  46  83 NE6       30.15F
6HR MIN TEMP:  51; 6HR MAX TEMP:  52;

BILOXI         NOT AVBL
PASCAGOULA     CLOUDY    51  47  86 N7        30.15F
6HR MIN TEMP:  51; 6HR MAX TEMP:  51;


$$

COASTAL OBSERVATIONS
LAKE AND NEARSHORE STATIONS

STATION/POSITION TIME  TEMP    WIND        PRES    WAVE
                       AIR SEA DIR/SP/G            HT/PER
                 (UTC) (F)     (DEG/KT/KT) (MB)    (FT/S)
PASCAGOULA       0600   51      20/  6/ 10 1020.3
WAVELAND YACHT   0600   51      30/  9/ 12 1020.2
GRAND ISLE       0600   54 60   40/  8/ 15 1020.7
SOUTHWEST PASS   0600   56                 1019.8
NEW CANAL        0600   53 56   50/ 10/ 12 1021.5
SHELL BEACH      0600   52 57   40/ 12/ 13 1020.8

OFFSHORE STATIONS

STATION/POSITION TIME  TEMP    WIND        PRES    WAVE
                       AIR SEA DIR/SP/G            HT/PER
                 (UTC) (F)     (DEG/KT/KT) (MB)    (FT/S)
64 S DAUPHIN ISL 0600   64 74   40/ 16/ 19 1018.4    6/ 6

$$




USA.gov is the U.S. government's official web portal to all federal, state and local government web resources and services.